Time,TemperatureF,DewpointF,PressureIn,WindDirection,WindDirectionDegrees,WindSpeedMPH,WindSpeedGustMPH,Humidity,HourlyPrecipIn,Conditions,Clouds,dailyrainin,SoftwareType,DateUTC
2013-03-19 00:00:00,47.7,46.9,29.82,NNE,22,2.0,2.0,97,0.09,,---,0.00,VWS V14.01,2013-03-19 04:00:00,
2013-03-19 00:05:00,47.9,47.1,29.82,NNE,22,1.0,2.0,97,0.09,,---,0.00,VWS V14.01,2013-03-19 04:05:00,
2013-03-19 00:10:00,48.0,47.2,29.81,NNE,22,0.0,2.0,97,0.09,,---,0.00,VWS V14.01,2013-03-19 04:10:00,
2013-03-19 00:15:00,47.9,47.1,29.81,NNE,22,0.0,2.0,97,0.10,,---,0.01,VWS V14.01,2013-03-19 04:15:00,
2013-03-19 00:20:00,47.9,47.1,29.80,NNE,22,0.0,2.0,97,0.10,,---,0.01,VWS V14.01,2013-03-19 04:20:00,
2013-03-19 00:25:00,47.8,47.0,29.80,NNE,22,0.0,2.0,97,0.10,,---,0.01,VWS V14.01,2013-03-19 04:25:00,
2013-03-19 00:30:00,47.7,46.9,29.80,NNE,22,0.0,0.0,97,0.03,,---,0.01,VWS V14.01,2013-03-19 04:30:00,
2013-03-19 00:35:00,47.6,46.8,29.79,NNE,22,0.0,0.0,97,0.03,,---,0.01,VWS V14.01,2013-03-19 04:35:00,
2013-03-19 00:40:00,47.5,46.4,29.79,NNE,22,0.0,0.0,96,0.03,,---,0.01,VWS V14.01,2013-03-19 04:40:00,
2013-03-19 00:45:00,47.4,46.3,29.78,NNE,22,0.0,0.0,96,0.03,,---,0.01,VWS V14.01,2013-03-19 04:45:00,
2013-03-19 00:50:00,47.3,46.2,29.78,NNE,22,0.0,0.0,96,0.03,,---,0.01,VWS V14.01,2013-03-19 04:50:00,
2013-03-19 00:55:00,47.3,46.2,29.78,NNE,22,0.0,0.0,96,0.03,,---,0.01,VWS V14.01,2013-03-19 04:55:00,
2013-03-19 01:00:00,47.2,46.1,29.78,NNE,22,0.0,0.0,96,0.01,,---,0.01,VWS V14.01,2013-03-19 05:00:00,
2013-03-19 01:05:00,47.2,46.1,29.78,NNE,22,0.0,0.0,96,0.01,,---,0.01,VWS V14.01,2013-03-19 05:05:00,
2013-03-19 01:10:00,47.1,46.3,29.77,NNE,22,0.0,0.0,97,0.01,,---,0.01,VWS V14.01,2013-03-19 05:10:00,
2013-03-19 01:15:00,47.0,46.2,29.77,NNE,22,0.0,0.0,97,0.01,,---,0.01,VWS V14.01,2013-03-19 05:15:00,
2013-03-19 01:20:00,47.0,46.2,29.77,NNE,22,0.0,0.0,97,0.01,,---,0.01,VWS V14.01,2013-03-19 05:20:00,
2013-03-19 01:25:00,46.9,46.1,29.77,NNE,22,0.0,0.0,97,0.01,,---,0.01,VWS V14.01,2013-03-19 05:25:00,
2013-03-19 01:30:00,46.9,45.8,29.76,NNE,22,0.0,0.0,96,0.00,,---,0.01,VWS V14.01,2013-03-19 05:30:00,
2013-03-19 01:35:00,46.8,45.7,29.77,NNE,22,0.0,0.0,96,0.00,,---,0.01,VWS V14.01,2013-03-19 05:35:00,
2013-03-19 01:40:00,46.8,45.7,29.76,NNE,22,0.0,0.0,96,0.00,,---,0.01,VWS V14.01,2013-03-19 05:40:00,
2013-03-19 01:45:00,46.7,45.6,29.77,NNE,22,0.0,0.0,96,0.00,,---,0.01,VWS V14.01,2013-03-19 05:45:00,
2013-03-19 01:50:00,46.7,45.6,29.77,NNE,22,0.0,0.0,96,0.00,,---,0.01,VWS V14.01,2013-03-19 05:50:00,
2013-03-19 01:55:00,46.7,45.6,29.76,NNE,22,0.0,0.0,96,0.00,,---,0.01,VWS V14.01,2013-03-19 05:55:00,
2013-03-19 02:00:00,46.7,45.6,29.75,NNE,22,0.0,0.0,96,0.00,,---,0.01,VWS V14.01,2013-03-19 06:00:00,
2013-03-19 02:05:00,46.7,45.9,29.76,NNE,22,0.0,0.0,97,0.00,,---,0.01,VWS V14.01,2013-03-19 06:05:00,
2013-03-19 02:10:00,46.7,45.9,29.76,NNE,22,0.0,0.0,97,0.00,,---,0.01,VWS V14.01,2013-03-19 06:10:00,
2013-03-19 02:15:00,46.7,45.9,29.76,NNE,22,0.0,0.0,97,0.00,,---,0.01,VWS V14.01,2013-03-19 06:15:00,
2013-03-19 02:20:00,46.6,45.8,29.76,NNE,22,0.0,0.0,97,0.00,,---,0.01,VWS V14.01,2013-03-19 06:20:00,
2013-03-19 02:25:00,46.6,45.8,29.76,NNE,22,0.0,0.0,97,0.00,,---,0.01,VWS V14.01,2013-03-19 06:25:00,
2013-03-19 02:30:00,46.6,45.8,29.76,NNE,22,0.0,0.0,97,0.01,,---,0.02,VWS V14.01,2013-03-19 06:30:00,
2013-03-19 02:35:00,46.5,45.7,29.76,NNE,22,0.0,0.0,97,0.01,,---,0.02,VWS V14.01,2013-03-19 06:35:00,
2013-03-19 02:40:00,46.5,45.7,29.76,NNE,22,0.0,0.0,97,0.02,,---,0.03,VWS V14.01,2013-03-19 06:40:00,
2013-03-19 02:45:00,46.5,45.7,29.76,NNE,22,0.0,0.0,97,0.02,,---,0.03,VWS V14.01,2013-03-19 06:45:00,
2013-03-19 02:50:00,46.5,45.7,29.75,NNE,22,0.0,0.0,97,0.03,,---,0.04,VWS V14.01,2013-03-19 06:50:00,
2013-03-19 02:55:00,46.5,45.7,29.75,NNE,22,0.0,0.0,97,0.03,,---,0.04,VWS V14.01,2013-03-19 06:55:00,
2013-03-19 03:00:00,46.5,45.7,29.75,NNE,22,0.0,0.0,97,0.04,,---,0.05,VWS V14.01,2013-03-19 07:00:00,
2013-03-19 03:05:00,46.5,45.7,29.75,NNE,22,0.0,0.0,97,0.04,,---,0.05,VWS V14.01,2013-03-19 07:05:00,
2013-03-19 03:10:00,46.4,45.6,29.75,NNE,22,0.0,0.0,97,0.05,,---,0.06,VWS V14.01,2013-03-19 07:10:00,
2013-03-19 03:15:00,46.4,45.6,29.74,NNE,22,0.0,0.0,97,0.05,,---,0.06,VWS V14.01,2013-03-19 07:15:00,
2013-03-19 03:20:00,46.4,45.6,29.74,NNE,22,0.0,0.0,97,0.06,,---,0.07,VWS V14.01,2013-03-19 07:20:00,
2013-03-19 03:25:00,46.4,45.6,29.74,NNE,22,0.0,0.0,97,0.06,,---,0.07,VWS V14.01,2013-03-19 07:25:00,
2013-03-19 03:30:00,46.4,45.6,29.73,NNE,22,0.0,0.0,97,0.06,,---,0.08,VWS V14.01,2013-03-19 07:30:00,
2013-03-19 03:35:00,46.4,45.6,29.73,NNE,22,0.0,0.0,97,0.06,,---,0.08,VWS V14.01,2013-03-19 07:35:00,
2013-03-19 03:40:00,46.4,45.6,29.73,NNE,22,0.0,0.0,97,0.07,,---,0.09,VWS V14.01,2013-03-19 07:40:00,
2013-03-19 03:45:00,46.3,45.5,29.73,NNE,22,0.0,0.0,97,0.07,,---,0.09,VWS V14.01,2013-03-19 07:45:00,
2013-03-19 03:50:00,46.3,45.5,29.73,NNE,22,0.0,0.0,97,0.08,,---,0.10,VWS V14.01,2013-03-19 07:50:00,
2013-03-19 03:55:00,46.2,45.4,29.73,NNE,22,0.0,0.0,97,0.08,,---,0.10,VWS V14.01,2013-03-19 07:55:00,
2013-03-19 03:59:00,46.2,45.4,29.73,NNE,22,0.0,0.0,97,0.06,,---,0.11,VWS V14.01,2013-03-19 07:59:00,
2013-03-19 04:00:00,46.5,45.7,29.75,NNE,22,0.0,0.0,97,0.04,,---,0.05,VWS V14.01,2013-03-19 08:00:00,
2013-03-19 04:04:00,46.1,45.3,29.73,NNE,22,0.0,0.0,97,0.07,,---,0.12,VWS V14.01,2013-03-19 08:04:00,
2013-03-19 04:09:00,46.0,45.2,29.74,NNE,22,0.0,0.0,97,0.07,,---,0.12,VWS V14.01,2013-03-19 08:09:00,
2013-03-19 04:14:00,45.9,45.1,29.73,NNE,22,0.0,0.0,97,0.08,,---,0.13,VWS V14.01,2013-03-19 08:14:00,
2013-03-19 04:19:00,45.8,45.0,29.73,NNE,22,0.0,0.0,97,0.09,,---,0.14,VWS V14.01,2013-03-19 08:19:00,
2013-03-19 04:24:00,45.8,45.0,29.73,NNE,22,0.0,0.0,97,0.10,,---,0.15,VWS V14.01,2013-03-19 08:24:00,
2013-03-19 04:29:00,45.8,45.0,29.73,NNE,22,0.0,0.0,97,0.07,,---,0.15,VWS V14.01,2013-03-19 08:29:00,
2013-03-19 04:30:00,46.4,45.6,29.73,NNE,22,0.0,0.0,97,0.07,,---,0.08,VWS V14.01,2013-03-19 08:30:00,
2013-03-19 04:34:00,45.8,45.0,29.73,NNE,22,0.0,0.0,97,0.07,,---,0.15,VWS V14.01,2013-03-19 08:34:00,
2013-03-19 04:39:00,45.9,45.1,29.73,NNE,22,0.0,0.0,97,0.08,,---,0.16,VWS V14.01,2013-03-19 08:39:00,
2013-03-19 04:44:00,45.9,45.1,29.73,NNE,22,0.0,0.0,97,0.08,,---,0.16,VWS V14.01,2013-03-19 08:44:00,
2013-03-19 04:49:00,45.9,45.1,29.73,NNE,22,0.0,1.0,97,0.08,,---,0.16,VWS V14.01,2013-03-19 08:49:00,
2013-03-19 04:54:00,45.9,45.1,29.73,NNE,22,0.0,1.0,97,0.09,,---,0.17,VWS V14.01,2013-03-19 08:54:00,
2013-03-19 04:59:00,45.9,45.1,29.73,NNE,22,0.0,0.0,97,0.06,,---,0.17,VWS V14.01,2013-03-19 08:59:00,
2013-03-19 05:00:00,46.2,45.4,29.73,NNE,22,0.0,0.0,97,0.09,,---,0.11,VWS V14.01,2013-03-19 09:00:00,
2013-03-19 05:04:00,45.9,45.1,29.72,NNE,22,0.0,3.0,97,0.06,,---,0.17,VWS V14.01,2013-03-19 09:04:00,
2013-03-19 05:09:00,45.8,45.0,29.72,NNE,22,0.0,3.0,97,0.06,,---,0.17,VWS V14.01,2013-03-19 09:09:00,
2013-03-19 05:14:00,45.8,45.0,29.72,NNE,22,0.0,3.0,97,0.06,,---,0.17,VWS V14.01,2013-03-19 09:14:00,
2013-03-19 05:19:00,45.8,45.0,29.72,NE,42,3.0,3.0,97,0.06,,---,0.17,VWS V14.01,2013-03-19 09:19:00,
2013-03-19 05:24:00,45.7,44.9,29.71,ENE,63,3.0,3.0,97,0.06,,---,0.17,VWS V14.01,2013-03-19 09:24:00,
2013-03-19 05:29:00,45.7,44.9,29.71,ENE,59,1.0,1.0,97,0.02,,---,0.17,VWS V14.01,2013-03-19 09:29:00,
2013-03-19 05:30:00,45.8,45.0,29.73,NNE,22,0.0,0.0,97,0.10,,---,0.15,VWS V14.01,2013-03-19 09:30:00,
2013-03-19 05:34:00,45.6,44.8,29.71,ENE,59,0.0,1.0,97,0.02,,---,0.17,VWS V14.01,2013-03-19 09:34:00,
2013-03-19 05:39:00,45.5,44.7,29.72,ENE,59,0.0,1.0,97,0.02,,---,0.17,VWS V14.01,2013-03-19 09:39:00,
2013-03-19 05:44:00,45.5,44.7,29.71,ENE,59,0.0,1.0,97,0.02,,---,0.17,VWS V14.01,2013-03-19 09:44:00,
2013-03-19 05:49:00,45.4,44.6,29.72,ENE,59,0.0,1.0,97,0.02,,---,0.17,VWS V14.01,2013-03-19 09:49:00,
2013-03-19 05:54:00,45.4,44.6,29.71,ENE,59,0.0,1.0,97,0.02,,---,0.17,VWS V14.01,2013-03-19 09:54:00,
2013-03-19 05:59:00,45.4,44.6,29.71,ENE,59,0.0,1.0,97,0.02,,---,0.17,VWS V14.01,2013-03-19 09:59:00,
2013-03-19 06:00:00,45.9,45.1,29.73,NNE,22,0.0,1.0,97,0.09,,---,0.17,VWS V14.01,2013-03-19 10:00:00,
2013-03-19 06:04:00,45.3,44.5,29.71,ENE,59,0.0,0.0,97,0.00,,---,0.17,VWS V14.01,2013-03-19 10:04:00,
2013-03-19 06:09:00,45.2,44.4,29.71,ENE,59,0.0,0.0,97,0.00,,---,0.17,VWS V14.01,2013-03-19 10:09:00,
2013-03-19 06:14:00,45.1,44.3,29.71,ENE,59,0.0,0.0,97,0.00,,---,0.17,VWS V14.01,2013-03-19 10:14:00,
2013-03-19 06:19:00,44.9,43.8,29.72,ENE,59,0.0,0.0,96,0.00,,---,0.17,VWS V14.01,2013-03-19 10:19:00,
2013-03-19 06:24:00,44.6,43.8,29.71,ENE,59,0.0,0.0,97,0.00,,---,0.17,VWS V14.01,2013-03-19 10:24:00,
2013-03-19 06:29:00,44.4,43.3,29.71,ENE,59,0.0,0.0,96,0.00,,---,0.17,VWS V14.01,2013-03-19 10:29:00,
2013-03-19 06:30:00,45.7,44.9,29.71,ENE,59,1.0,3.0,97,0.06,,---,0.17,VWS V14.01,2013-03-19 10:30:00,
2013-03-19 06:34:00,44.1,43.0,29.71,ENE,59,0.0,1.0,96,0.00,,---,0.17,VWS V14.01,2013-03-19 10:34:00,
2013-03-19 06:39:00,43.9,42.8,29.71,ENE,59,0.0,1.0,96,0.00,,---,0.17,VWS V14.01,2013-03-19 10:39:00,
2013-03-19 06:44:00,43.7,42.6,29.71,ENE,59,0.0,1.0,96,0.00,,---,0.17,VWS V14.01,2013-03-19 10:44:00,
2013-03-19 06:49:00,43.6,42.5,29.70,ENE,59,0.0,1.0,96,0.00,,---,0.17,VWS V14.01,2013-03-19 10:49:00,
2013-03-19 06:54:00,43.5,42.4,29.70,ENE,59,0.0,1.0,96,0.00,,---,0.17,VWS V14.01,2013-03-19 10:54:00,
2013-03-19 06:59:00,43.4,42.3,29.70,ENE,59,0.0,1.0,96,0.00,,---,0.17,VWS V14.01,2013-03-19 10:59:00,
2013-03-19 07:00:00,45.4,44.6,29.71,ENE,59,0.0,1.0,97,0.02,,---,0.17,VWS V14.01,2013-03-19 11:00:00,
2013-03-19 07:04:00,43.4,42.6,29.70,ENE,59,0.0,0.0,97,0.00,,---,0.17,VWS V14.01,2013-03-19 11:04:00,
2013-03-19 07:09:00,43.4,42.3,29.70,ENE,59,0.0,0.0,96,0.00,,---,0.17,VWS V14.01,2013-03-19 11:09:00,
2013-03-19 07:14:00,43.4,42.3,29.70,ENE,59,0.0,0.0,96,0.00,,---,0.17,VWS V14.01,2013-03-19 11:14:00,
2013-03-19 07:19:00,43.4,42.3,29.70,ENE,59,0.0,0.0,96,0.00,,---,0.17,VWS V14.01,2013-03-19 11:19:00,
2013-03-19 07:24:00,43.4,42.6,29.70,ENE,59,0.0,0.0,97,0.00,,---,0.17,VWS V14.01,2013-03-19 11:24:00,
2013-03-19 07:29:00,43.4,42.6,29.70,ENE,59,0.0,0.0,97,0.00,,---,0.17,VWS V14.01,2013-03-19 11:29:00,
2013-03-19 07:30:00,44.4,43.3,29.71,ENE,59,0.0,0.0,96,0.00,,---,0.17,VWS V14.01,2013-03-19 11:30:00,
2013-03-19 07:34:00,43.4,42.6,29.70,ENE,59,0.0,0.0,97,0.00,,---,0.17,VWS V14.01,2013-03-19 11:34:00,
2013-03-19 07:39:00,43.4,42.6,29.70,ENE,59,0.0,0.0,97,0.00,,---,0.17,VWS V14.01,2013-03-19 11:39:00,
2013-03-19 07:44:00,43.4,42.6,29.70,ENE,59,0.0,0.0,97,0.00,,---,0.17,VWS V14.01,2013-03-19 11:44:00,
2013-03-19 07:49:00,43.4,42.6,29.70,ENE,59,0.0,0.0,97,0.00,,---,0.17,VWS V14.01,2013-03-19 11:49:00,
2013-03-19 07:54:00,43.4,42.6,29.71,ENE,59,0.0,0.0,97,0.00,,---,0.17,VWS V14.01,2013-03-19 11:54:00,
2013-03-19 07:59:00,43.6,42.8,29.71,ENE,59,1.0,2.0,97,0.00,,---,0.17,VWS V14.01,2013-03-19 11:59:00,
2013-03-19 08:00:00,43.4,42.3,29.70,ENE,59,0.0,1.0,96,0.00,,---,0.17,VWS V14.01,2013-03-19 12:00:00,
2013-03-19 08:04:00,43.8,43.0,29.71,ENE,57,3.0,3.0,97,0.00,,---,0.17,VWS V14.01,2013-03-19 12:04:00,
2013-03-19 08:09:00,43.9,43.1,29.71,NW,306,0.0,3.0,97,0.00,,---,0.17,VWS V14.01,2013-03-19 12:09:00,
2013-03-19 08:14:00,43.9,43.1,29.71,SW,236,0.0,3.0,97,0.00,,---,0.17,VWS V14.01,2013-03-19 12:14:00,
2013-03-19 08:19:00,43.8,43.0,29.70,NW,309,0.0,3.0,97,0.00,,---,0.17,VWS V14.01,2013-03-19 12:19:00,
2013-03-19 08:24:00,43.9,43.1,29.70,WNW,293,0.0,3.0,97,0.00,,---,0.17,VWS V14.01,2013-03-19 12:24:00,
2013-03-19 08:29:00,44.0,43.2,29.70,WNW,293,1.0,3.0,97,0.00,,---,0.17,VWS V14.01,2013-03-19 12:29:00,
2013-03-19 08:30:00,43.4,42.6,29.70,ENE,59,0.0,0.0,97,0.00,,---,0.17,VWS V14.01,2013-03-19 12:30:00,
2013-03-19 08:34:00,44.1,43.3,29.70,West,263,2.0,3.0,97,0.00,,---,0.17,VWS V14.01,2013-03-19 12:34:00,
2013-03-19 08:39:00,44.2,43.4,29.70,NW,311,0.0,3.0,97,0.00,,---,0.17,VWS V14.01,2013-03-19 12:39:00,
2013-03-19 08:44:00,44.3,43.5,29.70,NNW,327,0.0,5.0,97,0.00,,---,0.17,VWS V14.01,2013-03-19 12:44:00,
2013-03-19 08:49:00,44.4,43.6,29.70,WSW,247,1.0,5.0,97,0.00,,---,0.17,VWS V14.01,2013-03-19 12:49:00,
2013-03-19 08:54:00,44.5,43.7,29.70,SW,236,0.0,5.0,97,0.00,,---,0.17,VWS V14.01,2013-03-19 12:54:00,
2013-03-19 08:59:00,44.5,43.7,29.70,WSW,257,0.0,5.0,97,0.00,,---,0.17,VWS V14.01,2013-03-19 12:59:00,
2013-03-19 09:00:00,43.6,42.8,29.71,ENE,59,1.0,2.0,97,0.00,,---,0.17,VWS V14.01,2013-03-19 13:00:00,
2013-03-19 09:04:00,44.4,43.6,29.70,West,269,0.0,3.0,97,0.00,,---,0.17,VWS V14.01,2013-03-19 13:04:00,
2013-03-19 09:09:00,44.4,43.6,29.70,West,273,1.0,5.0,97,0.00,,---,0.17,VWS V14.01,2013-03-19 13:09:00,
2013-03-19 09:14:00,44.3,43.5,29.70,West,267,0.0,5.0,97,0.00,,---,0.17,VWS V14.01,2013-03-19 13:14:00,
2013-03-19 09:19:00,44.3,43.5,29.70,WNW,290,1.0,5.0,97,0.00,,---,0.17,VWS V14.01,2013-03-19 13:19:00,
2013-03-19 09:24:00,44.2,43.4,29.71,West,271,4.0,5.0,97,0.00,,---,0.17,VWS V14.01,2013-03-19 13:24:00,
2013-03-19 09:29:00,44.0,43.2,29.71,SW,217,2.0,5.0,97,0.00,,---,0.17,VWS V14.01,2013-03-19 13:29:00,
2013-03-19 09:30:00,44.0,43.2,29.70,WNW,285,1.0,3.0,97,0.00,,---,0.17,VWS V14.01,2013-03-19 13:30:00,
2013-03-19 09:34:00,43.8,43.0,29.71,West,264,2.0,5.0,97,0.00,,---,0.17,VWS V14.01,2013-03-19 13:34:00,
2013-03-19 09:39:00,43.5,42.7,29.71,NW,310,8.0,8.0,97,0.00,,---,0.17,VWS V14.01,2013-03-19 13:39:00,
2013-03-19 09:44:00,43.4,42.3,29.71,WNW,292,2.0,8.0,96,0.00,,---,0.17,VWS V14.01,2013-03-19 13:44:00,
2013-03-19 09:49:00,43.3,42.2,29.71,West,269,5.0,8.0,96,0.00,,---,0.17,VWS V14.01,2013-03-19 13:49:00,
2013-03-19 09:54:00,43.2,42.1,29.71,WNW,284,2.0,8.0,96,0.00,,---,0.17,VWS V14.01,2013-03-19 13:54:00,
2013-03-19 09:59:00,43.2,42.1,29.72,NW,305,0.0,8.0,96,0.00,,---,0.17,VWS V14.01,2013-03-19 13:59:00,
2013-03-19 10:00:00,44.4,43.6,29.70,WSW,257,0.0,5.0,97,0.00,,---,0.17,VWS V14.01,2013-03-19 14:00:00,
2013-03-19 10:04:00,43.2,42.4,29.71,North,5,2.0,4.0,97,0.00,,---,0.17,VWS V14.01,2013-03-19 14:04:00,
2013-03-19 10:09:00,43.2,42.4,29.71,WSW,255,1.0,5.0,97,0.00,,---,0.17,VWS V14.01,2013-03-19 14:09:00,
2013-03-19 10:14:00,43.2,42.4,29.71,WSW,257,1.0,6.0,97,0.00,,---,0.17,VWS V14.01,2013-03-19 14:14:00,
2013-03-19 10:19:00,43.2,42.4,29.71,WSW,241,2.0,6.0,97,0.00,,---,0.17,VWS V14.01,2013-03-19 14:19:00,
2013-03-19 10:24:00,43.2,42.4,29.72,WSW,249,7.0,7.0,97,0.00,,---,0.17,VWS V14.01,2013-03-19 14:24:00,
2013-03-19 10:29:00,43.3,42.5,29.72,NW,321,2.0,7.0,97,0.00,,---,0.17,VWS V14.01,2013-03-19 14:29:00,
2013-03-19 10:30:00,44.0,43.2,29.71,WNW,298,2.0,5.0,97,0.00,,---,0.17,VWS V14.01,2013-03-19 14:30:00,
2013-03-19 10:34:00,43.4,42.6,29.72,West,281,3.0,7.0,97,0.00,,---,0.17,VWS V14.01,2013-03-19 14:34:00,
2013-03-19 10:38:00,43.4,42.6,29.72,WNW,298,1.0,8.0,97,0.00,,---,0.17,VWS V14.01,2013-03-19 14:38:00,
2013-03-19 10:44:00,43.5,42.7,29.72,NNW,348,0.0,8.0,97,0.00,,---,0.17,VWS V14.01,2013-03-19 14:44:00,
2013-03-19 10:49:00,43.6,42.8,29.72,West,269,4.0,8.0,97,0.00,,---,0.17,VWS V14.01,2013-03-19 14:49:00,
2013-03-19 10:54:00,43.5,42.7,29.72,West,279,3.0,8.0,97,0.00,,---,0.17,VWS V14.01,2013-03-19 14:54:00,
2013-03-19 10:59:00,43.6,42.8,29.71,WNW,286,2.0,8.0,97,0.00,,---,0.17,VWS V14.01,2013-03-19 14:59:00,
2013-03-19 11:00:00,43.2,42.1,29.72,NW,305,0.0,8.0,96,0.00,,---,0.17,VWS V14.01,2013-03-19 15:00:00,
2013-03-19 11:04:00,43.7,42.9,29.71,North,355,4.0,6.0,97,0.00,,---,0.17,VWS V14.01,2013-03-19 15:04:00,
2013-03-19 11:09:00,43.8,43.0,29.70,SSE,159,0.0,7.0,97,0.00,,---,0.17,VWS V14.01,2013-03-19 15:09:00,
2013-03-19 11:14:00,44.0,43.2,29.71,WNW,288,6.0,7.0,97,0.00,,---,0.17,VWS V14.01,2013-03-19 15:14:00,
2013-03-19 11:19:00,44.1,43.3,29.71,NNW,344,2.0,9.0,97,0.00,,---,0.17,VWS V14.01,2013-03-19 15:19:00,
2013-03-19 11:24:00,44.3,43.5,29.71,West,267,3.0,9.0,97,0.00,,---,0.17,VWS V14.01,2013-03-19 15:24:00,
2013-03-19 11:29:00,44.3,43.5,29.71,NNE,16,1.0,9.0,97,0.00,,---,0.17,VWS V14.01,2013-03-19 15:29:00,
2013-03-19 11:30:00,43.3,42.5,29.72,WSW,254,3.0,7.0,97,0.00,,---,0.17,VWS V14.01,2013-03-19 15:30:00,
2013-03-19 11:34:00,44.2,43.1,29.71,West,271,4.0,14.0,96,0.00,,---,0.17,VWS V14.01,2013-03-19 15:34:00,
2013-03-19 11:39:00,44.1,43.0,29.71,WNW,295,0.0,14.0,96,0.00,,---,0.17,VWS V14.01,2013-03-19 15:39:00,
2013-03-19 11:44:00,44.0,42.7,29.71,WSW,249,3.0,14.0,95,0.00,,---,0.17,VWS V14.01,2013-03-19 15:44:00,
2013-03-19 11:49:00,44.1,42.8,29.71,WNW,298,1.0,14.0,95,0.00,,---,0.17,VWS V14.01,2013-03-19 15:49:00,
2013-03-19 11:54:00,44.4,43.3,29.71,East,80,1.0,14.0,96,0.00,,---,0.17,VWS V14.01,2013-03-19 15:54:00,
2013-03-19 11:59:00,44.4,43.1,29.71,ENE,67,2.0,14.0,95,0.00,,---,0.17,VWS V14.01,2013-03-19 15:59:00,
2013-03-19 12:00:00,43.6,42.8,29.71,WNW,285,2.0,8.0,97,0.00,,---,0.17,VWS V14.01,2013-03-19 16:00:00,
2013-03-19 12:04:00,44.5,42.9,29.71,WSW,256,0.0,10.0,94,0.00,,---,0.17,VWS V14.01,2013-03-19 16:04:00,
2013-03-19 12:09:00,44.8,42.9,29.71,NW,326,2.0,12.0,93,0.00,,---,0.17,VWS V14.01,2013-03-19 16:09:00,
2013-03-19 12:14:00,44.8,42.6,29.71,NW,322,3.0,12.0,92,0.00,,---,0.17,VWS V14.01,2013-03-19 16:14:00,
2013-03-19 12:19:00,44.7,42.2,29.72,WNW,297,6.0,12.0,91,0.00,,---,0.17,VWS V14.01,2013-03-19 16:19:00,
2013-03-19 12:24:00,44.7,42.2,29.72,WNW,286,6.0,12.0,91,0.00,,---,0.17,VWS V14.01,2013-03-19 16:24:00,
2013-03-19 12:29:00,44.7,42.2,29.72,NE,47,3.0,12.0,91,0.00,,---,0.17,VWS V14.01,2013-03-19 16:29:00,
2013-03-19 12:30:00,44.3,43.5,29.71,NNE,16,1.0,9.0,97,0.00,,---,0.17,VWS V14.01,2013-03-19 16:30:00,
2013-03-19 12:34:00,44.9,42.2,29.72,NNE,12,4.0,11.0,90,0.00,,---,0.17,VWS V14.01,2013-03-19 16:34:00,
2013-03-19 12:39:00,45.0,42.2,29.71,NNE,26,0.0,11.0,90,0.00,,---,0.17,VWS V14.01,2013-03-19 16:39:00,
2013-03-19 12:44:00,45.0,42.0,29.71,North,355,7.0,11.0,89,0.00,,---,0.17,VWS V14.01,2013-03-19 16:44:00,
2013-03-19 12:49:00,45.1,42.3,29.72,WSW,243,4.0,12.0,90,0.00,,---,0.17,VWS V14.01,2013-03-19 16:49:00,
2013-03-19 12:54:00,45.1,42.1,29.72,WNW,297,3.0,12.0,89,0.00,,---,0.17,VWS V14.01,2013-03-19 16:54:00,
2013-03-19 12:59:00,45.2,42.2,29.72,NNW,344,6.0,12.0,89,0.00,,---,0.17,VWS V14.01,2013-03-19 16:59:00,
2013-03-19 13:00:00,44.4,42.8,29.71,NNW,342,5.0,14.0,94,0.00,,---,0.17,VWS V14.01,2013-03-19 17:00:00,
2013-03-19 13:04:00,45.4,42.3,29.71,West,272,6.0,9.0,89,0.00,,---,0.17,VWS V14.01,2013-03-19 17:04:00,
2013-03-19 13:09:00,45.9,42.8,29.71,WSW,257,0.0,9.0,89,0.00,,---,0.17,VWS V14.01,2013-03-19 17:09:00,
2013-03-19 13:14:00,46.1,42.2,29.71,NNW,329,3.0,10.0,86,0.00,,---,0.17,VWS V14.01,2013-03-19 17:14:00,
2013-03-19 13:19:00,46.3,42.3,29.71,West,277,6.0,12.0,86,0.00,,---,0.17,VWS V14.01,2013-03-19 17:19:00,
2013-03-19 13:24:00,46.5,42.5,29.71,NW,319,9.0,12.0,86,0.00,,---,0.17,VWS V14.01,2013-03-19 17:24:00,
2013-03-19 13:29:00,46.9,42.6,29.70,NNW,341,4.0,12.0,85,0.00,,---,0.17,VWS V14.01,2013-03-19 17:29:00,
2013-03-19 13:30:00,44.7,42.2,29.72,West,263,6.0,12.0,91,0.00,,---,0.17,VWS V14.01,2013-03-19 17:30:00,
2013-03-19 13:34:00,47.6,43.0,29.70,NW,321,1.0,8.0,84,0.00,,---,0.17,VWS V14.01,2013-03-19 17:34:00,
2013-03-19 13:39:00,48.4,43.8,29.70,NNE,24,4.0,8.0,84,0.00,,---,0.17,VWS V14.01,2013-03-19 17:39:00,
2013-03-19 13:44:00,48.7,42.8,29.69,SW,233,3.0,10.0,80,0.00,,---,0.17,VWS V14.01,2013-03-19 17:44:00,
2013-03-19 13:49:00,49.2,43.0,29.69,NNE,14,2.0,10.0,79,0.00,,---,0.17,VWS V14.01,2013-03-19 17:49:00,
2013-03-19 13:54:00,49.5,43.6,29.69,NNW,342,1.0,10.0,80,0.00,,---,0.17,VWS V14.01,2013-03-19 17:54:00,
2013-03-19 13:59:00,49.9,43.0,29.68,WNW,290,2.0,10.0,77,0.00,,---,0.17,VWS V14.01,2013-03-19 17:59:00,
2013-03-19 14:00:00,45.2,42.2,29.72,WSW,241,4.0,12.0,89,0.00,,---,0.17,VWS V14.01,2013-03-19 18:00:00,
2013-03-19 14:04:00,50.4,42.8,29.68,NW,313,2.0,8.0,75,0.00,,---,0.17,VWS V14.01,2013-03-19 18:04:00,
2013-03-19 14:09:00,50.9,43.6,29.68,North,11,1.0,8.0,76,0.00,,---,0.17,VWS V14.01,2013-03-19 18:09:00,
2013-03-19 14:14:00,51.6,44.0,29.68,West,271,5.0,8.0,75,0.00,,---,0.17,VWS V14.01,2013-03-19 18:14:00,
2013-03-19 14:19:00,52.0,43.3,29.67,NNE,30,0.0,8.0,72,0.00,,---,0.17,VWS V14.01,2013-03-19 18:19:00,
2013-03-19 14:24:00,52.5,42.6,29.68,NE,50,2.0,8.0,69,0.00,,---,0.17,VWS V14.01,2013-03-19 18:24:00,
2013-03-19 14:29:00,52.7,43.6,29.67,NNW,342,0.0,8.0,71,0.00,,---,0.17,VWS V14.01,2013-03-19 18:29:00,
2013-03-19 14:30:00,46.9,42.6,29.70,NW,306,2.0,12.0,85,0.00,,---,0.17,VWS V14.01,2013-03-19 18:30:00,
2013-03-19 14:34:00,53.1,43.6,29.68,North,355,4.0,5.0,70,0.00,,---,0.17,VWS V14.01,2013-03-19 18:34:00,
2013-03-19 14:39:00,53.2,42.9,29.68,WNW,290,1.0,9.0,68,0.00,,---,0.17,VWS V14.01,2013-03-19 18:39:00,
2013-03-19 14:44:00,53.3,42.2,29.67,SSW,206,1.0,13.0,66,0.00,,---,0.17,VWS V14.01,2013-03-19 18:44:00,
2013-03-19 14:49:00,53.6,42.5,29.68,West,279,0.0,13.0,66,0.00,,---,0.17,VWS V14.01,2013-03-19 18:49:00,
2013-03-19 14:54:00,53.9,42.0,29.68,NNW,333,6.0,15.0,64,0.00,,---,0.17,VWS V14.01,2013-03-19 18:54:00,
2013-03-19 14:59:00,53.9,40.8,29.68,NNE,15,3.0,15.0,61,0.00,,---,0.17,VWS V14.01,2013-03-19 18:59:00,
2013-03-19 15:00:00,50.0,43.1,29.68,WSW,257,1.0,10.0,77,0.00,,---,0.17,VWS V14.01,2013-03-19 19:00:00,
2013-03-19 15:04:00,54.0,41.3,29.67,West,277,2.0,12.0,62,0.00,,---,0.17,VWS V14.01,2013-03-19 19:04:00,
2013-03-19 15:09:00,54.0,40.0,29.67,NNW,348,2.0,12.0,59,0.00,,---,0.17,VWS V14.01,2013-03-19 19:09:00,
2013-03-19 15:14:00,54.1,40.1,29.67,SW,220,4.0,12.0,59,0.00,,---,0.17,VWS V14.01,2013-03-19 19:14:00,
2013-03-19 15:19:00,54.4,40.4,29.67,WNW,301,5.0,12.0,59,0.00,,---,0.17,VWS V14.01,2013-03-19 19:19:00,
2013-03-19 15:24:00,54.2,39.8,29.67,NNW,332,1.0,12.0,58,0.00,,---,0.17,VWS V14.01,2013-03-19 19:24:00,
2013-03-19 15:29:00,54.1,40.1,29.68,North,5,4.0,13.0,59,0.00,,---,0.17,VWS V14.01,2013-03-19 19:29:00,
2013-03-19 15:30:00,52.7,43.6,29.67,West,275,3.0,8.0,71,0.00,,---,0.17,VWS V14.01,2013-03-19 19:30:00,
2013-03-19 15:34:00,54.0,40.4,29.67,WNW,282,1.0,8.0,60,0.00,,---,0.17,VWS V14.01,2013-03-19 19:34:00,
2013-03-19 15:39:00,54.4,40.0,29.67,NW,326,1.0,8.0,58,0.00,,---,0.17,VWS V14.01,2013-03-19 19:39:00,
2013-03-19 15:44:00,54.7,39.8,29.67,WSW,250,3.0,8.0,57,0.00,,---,0.17,VWS V14.01,2013-03-19 19:44:00,
2013-03-19 15:49:00,54.8,40.3,29.68,North,360,1.0,8.0,58,0.00,,---,0.17,VWS V14.01,2013-03-19 19:49:00,
2013-03-19 15:54:00,55.0,40.5,29.68,WSW,240,2.0,8.0,58,0.00,,---,0.17,VWS V14.01,2013-03-19 19:54:00,
2013-03-19 15:59:00,54.8,39.0,29.68,NNE,15,7.0,10.0,55,0.00,,---,0.17,VWS V14.01,2013-03-19 19:59:00,
2013-03-19 16:00:00,53.9,40.8,29.68,NNE,21,4.0,15.0,61,0.00,,---,0.17,VWS V14.01,2013-03-19 20:00:00,
2013-03-19 16:04:00,54.6,38.8,29.68,WNW,302,6.0,9.0,55,0.00,,---,0.17,VWS V14.01,2013-03-19 20:04:00,
2013-03-19 16:09:00,54.4,38.1,29.69,North,5,1.0,15.0,54,0.00,,---,0.17,VWS V14.01,2013-03-19 20:09:00,
2013-03-19 16:14:00,53.8,38.5,29.68,West,275,3.0,15.0,56,0.00,,---,0.17,VWS V14.01,2013-03-19 20:14:00,
2013-03-19 16:19:00,53.5,39.5,29.68,NNE,15,4.0,15.0,59,0.00,,---,0.17,VWS V14.01,2013-03-19 20:19:00,
2013-03-19 16:24:00,53.9,39.5,29.68,SW,235,2.0,15.0,58,0.00,,---,0.17,VWS V14.01,2013-03-19 20:24:00,
2013-03-19 16:29:00,54.1,38.8,29.68,NNE,27,4.0,15.0,56,0.00,,---,0.17,VWS V14.01,2013-03-19 20:29:00,
2013-03-19 16:30:00,54.1,40.1,29.68,SSE,162,3.0,13.0,59,0.00,,---,0.17,VWS V14.01,2013-03-19 20:30:00,
2013-03-19 16:34:00,53.9,38.6,29.68,NW,307,6.0,8.0,56,0.00,,---,0.17,VWS V14.01,2013-03-19 20:34:00,
2013-03-19 16:39:00,53.9,38.6,29.68,NE,47,0.0,8.0,56,0.00,,---,0.17,VWS V14.01,2013-03-19 20:39:00,
2013-03-19 16:44:00,53.4,37.7,29.68,West,271,9.0,9.0,55,0.00,,---,0.17,VWS V14.01,2013-03-19 20:44:00,
2013-03-19 16:49:00,52.9,37.7,29.68,NW,323,3.0,9.0,56,0.00,,---,0.17,VWS V14.01,2013-03-19 20:49:00,
2013-03-19 16:54:00,52.6,37.4,29.68,SW,220,0.0,9.0,56,0.00,,---,0.17,VWS V14.01,2013-03-19 20:54:00,
2013-03-19 16:59:00,52.8,36.2,29.68,NW,315,8.0,9.0,53,0.00,,---,0.17,VWS V14.01,2013-03-19 20:59:00,
2013-03-19 17:00:00,54.8,39.0,29.68,WNW,299,7.0,10.0,55,0.00,,---,0.17,VWS V14.01,2013-03-19 21:00:00,
2013-03-19 17:04:00,52.9,35.8,29.68,NNE,14,5.0,7.0,52,0.00,,---,0.17,VWS V14.01,2013-03-19 21:04:00,
2013-03-19 17:09:00,53.1,36.4,29.68,NW,311,4.0,12.0,53,0.00,,---,0.17,VWS V14.01,2013-03-19 21:09:00,
2013-03-19 17:14:00,53.3,36.1,29.69,West,263,5.0,12.0,52,0.00,,---,0.17,VWS V14.01,2013-03-19 21:14:00,
2013-03-19 17:19:00,53.3,36.1,29.69,NW,307,3.0,12.0,52,0.00,,---,0.17,VWS V14.01,2013-03-19 21:19:00,
2013-03-19 17:24:00,53.3,37.6,29.69,WSW,254,2.0,12.0,55,0.00,,---,0.17,VWS V14.01,2013-03-19 21:24:00,
2013-03-19 17:29:00,53.2,36.0,29.69,West,267,3.0,12.0,52,0.00,,---,0.17,VWS V14.01,2013-03-19 21:29:00,
2013-03-19 17:30:00,54.1,38.8,29.68,NNE,19,6.0,15.0,56,0.00,,---,0.17,VWS V14.01,2013-03-19 21:30:00,
2013-03-19 17:34:00,53.0,36.3,29.70,NNW,340,3.0,9.0,53,0.00,,---,0.17,VWS V14.01,2013-03-19 21:34:00,
2013-03-19 17:39:00,52.6,36.5,29.70,WNW,297,0.0,9.0,54,0.00,,---,0.17,VWS V14.01,2013-03-19 21:39:00,
2013-03-19 17:44:00,52.3,36.2,29.70,NNE,20,2.0,9.0,54,0.00,,---,0.17,VWS V14.01,2013-03-19 21:44:00,
2013-03-19 17:49:00,51.8,36.2,29.70,WNW,294,0.0,9.0,55,0.00,,---,0.17,VWS V14.01,2013-03-19 21:49:00,
2013-03-19 17:54:00,51.5,35.9,29.70,NW,318,0.0,9.0,55,0.00,,---,0.17,VWS V14.01,2013-03-19 21:54:00,
2013-03-19 17:59:00,51.2,35.6,29.70,NW,324,0.0,9.0,55,0.00,,---,0.17,VWS V14.01,2013-03-19 21:59:00,
2013-03-19 18:00:00,52.8,36.6,29.68,WNW,300,2.0,9.0,54,0.00,,---,0.17,VWS V14.01,2013-03-19 22:00:00,
2013-03-19 18:04:00,51.0,35.4,29.70,NE,41,1.0,5.0,55,0.00,,---,0.17,VWS V14.01,2013-03-19 22:04:00,
2013-03-19 18:09:00,50.9,34.9,29.70,WNW,285,0.0,5.0,54,0.00,,---,0.17,VWS V14.01,2013-03-19 22:09:00,
2013-03-19 18:14:00,50.8,35.2,29.70,NNW,346,1.0,5.0,55,0.00,,---,0.17,VWS V14.01,2013-03-19 22:14:00,
2013-03-19 18:19:00,50.6,35.5,29.70,NE,42,0.0,5.0,56,0.00,,---,0.17,VWS V14.01,2013-03-19 22:19:00,
2013-03-19 18:24:00,50.4,35.8,29.70,NE,42,0.0,5.0,57,0.00,,---,0.17,VWS V14.01,2013-03-19 22:24:00,
2013-03-19 18:29:00,50.1,35.5,29.71,NNW,347,0.0,5.0,57,0.00,,---,0.17,VWS V14.01,2013-03-19 22:29:00,
2013-03-19 18:30:00,53.1,36.0,29.69,NW,309,4.0,12.0,52,0.00,,---,0.17,VWS V14.01,2013-03-19 22:30:00,
2013-03-19 18:34:00,49.9,35.7,29.71,NNW,347,0.0,1.0,58,0.00,,---,0.17,VWS V14.01,2013-03-19 22:34:00,
2013-03-19 18:39:00,49.7,37.2,29.72,NNW,347,0.0,1.0,62,0.00,,---,0.17,VWS V14.01,2013-03-19 22:39:00,
2013-03-19 18:44:00,49.4,37.3,29.72,NNW,347,0.0,1.0,63,0.00,,---,0.17,VWS V14.01,2013-03-19 22:44:00,
2013-03-19 18:49:00,49.2,38.7,29.72,NNW,347,1.0,1.0,67,0.00,,---,0.17,VWS V14.01,2013-03-19 22:49:00,
2013-03-19 18:54:00,48.7,38.2,29.72,NNW,347,0.0,2.0,67,0.00,,---,0.17,VWS V14.01,2013-03-19 22:54:00,
2013-03-19 18:59:00,48.3,39.0,29.72,WNW,294,0.0,2.0,70,0.00,,---,0.17,VWS V14.01,2013-03-19 22:59:00,
2013-03-19 19:00:00,51.2,35.6,29.70,NW,324,0.0,9.0,55,0.00,,---,0.17,VWS V14.01,2013-03-19 23:00:00,
2013-03-19 19:04:00,48.1,38.4,29.72,WNW,284,1.0,5.0,69,0.00,,---,0.17,VWS V14.01,2013-03-19 23:04:00,
2013-03-19 19:09:00,48.1,38.8,29.72,East,96,2.0,5.0,70,0.00,,---,0.17,VWS V14.01,2013-03-19 23:09:00,
2013-03-19 19:14:00,48.0,39.1,29.72,WNW,282,3.0,5.0,71,0.00,,---,0.17,VWS V14.01,2013-03-19 23:14:00,
2013-03-19 19:19:00,48.0,38.7,29.72,SE,125,1.0,5.0,70,0.00,,---,0.17,VWS V14.01,2013-03-19 23:19:00,
2013-03-19 19:24:00,47.9,39.0,29.73,WNW,286,2.0,5.0,71,0.00,,---,0.17,VWS V14.01,2013-03-19 23:24:00,
2013-03-19 19:29:00,47.9,38.6,29.73,NW,311,1.0,6.0,70,0.00,,---,0.17,VWS V14.01,2013-03-19 23:29:00,
2013-03-19 19:30:00,50.1,35.5,29.71,NNW,347,0.0,5.0,57,0.00,,---,0.17,VWS V14.01,2013-03-19 23:30:00,
2013-03-19 19:34:00,47.8,38.9,29.74,WNW,298,2.0,2.0,71,0.00,,---,0.17,VWS V14.01,2013-03-19 23:34:00,
2013-03-19 19:39:00,47.7,39.1,29.74,SSE,167,0.0,12.0,72,0.00,,---,0.17,VWS V14.01,2013-03-19 23:39:00,
2013-03-19 19:44:00,47.7,38.8,29.74,NNE,25,1.0,12.0,71,0.00,,---,0.17,VWS V14.01,2013-03-19 23:44:00,
2013-03-19 19:49:00,47.7,39.1,29.73,West,265,1.0,12.0,72,0.00,,---,0.17,VWS V14.01,2013-03-19 23:49:00,
2013-03-19 19:54:00,47.6,39.0,29.73,NW,319,1.0,12.0,72,0.00,,---,0.17,VWS V14.01,2013-03-19 23:54:00,
2013-03-19 19:59:00,47.4,39.2,29.73,NE,34,1.0,12.0,73,0.00,,---,0.17,VWS V14.01,2013-03-19 23:59:00,
2013-03-19 20:00:00,48.3,39.0,29.72,WNW,294,0.0,2.0,70,0.00,,---,0.17,VWS V14.01,2013-03-20 00:00:00,
2013-03-19 20:04:00,47.1,38.9,29.73,West,260,0.0,3.0,73,0.00,,---,0.17,VWS V14.01,2013-03-20 00:04:00,
2013-03-19 20:09:00,46.7,38.9,29.73,West,260,0.0,3.0,74,0.00,,---,0.17,VWS V14.01,2013-03-20 00:09:00,
2013-03-19 20:14:00,46.4,38.9,29.73,NW,319,0.0,3.0,75,0.00,,---,0.17,VWS V14.01,2013-03-20 00:14:00,
2013-03-19 20:19:00,46.1,39.0,29.73,NW,319,0.0,3.0,76,0.00,,---,0.17,VWS V14.01,2013-03-20 00:19:00,
2013-03-19 20:24:00,45.9,38.8,29.73,NW,317,0.0,3.0,76,0.00,,---,0.17,VWS V14.01,2013-03-20 00:24:00,
2013-03-19 20:29:00,45.6,38.8,29.74,NW,317,0.0,3.0,77,0.00,,---,0.17,VWS V14.01,2013-03-20 00:29:00,
2013-03-19 20:30:00,47.9,38.6,29.73,NW,311,1.0,6.0,70,0.00,,---,0.17,VWS V14.01,2013-03-20 00:30:00,
2013-03-19 20:34:00,45.4,39.0,29.74,NW,317,0.0,1.0,78,0.00,,---,0.17,VWS V14.01,2013-03-20 00:34:00,
2013-03-19 20:39:00,45.1,39.0,29.74,NW,317,0.0,2.0,79,0.00,,---,0.17,VWS V14.01,2013-03-20 00:39:00,
2013-03-19 20:44:00,44.7,38.6,29.74,NW,317,0.0,2.0,79,0.00,,---,0.17,VWS V14.01,2013-03-20 00:44:00,
2013-03-19 20:49:00,44.4,38.3,29.74,NW,317,0.0,2.0,79,0.00,,---,0.17,VWS V14.01,2013-03-20 00:49:00,
2013-03-19 20:54:00,44.1,38.3,29.74,NW,317,0.0,2.0,80,0.00,,---,0.17,VWS V14.01,2013-03-20 00:54:00,
2013-03-19 20:59:00,43.6,38.2,29.75,NW,317,0.0,2.0,81,0.00,,---,0.17,VWS V14.01,2013-03-20 00:59:00,
2013-03-19 21:00:00,47.3,39.1,29.73,NNW,329,2.0,12.0,73,0.00,,---,0.17,VWS V14.01,2013-03-20 01:00:00,
2013-03-19 21:04:00,43.2,38.1,29.75,NW,317,0.0,0.0,82,0.00,,---,0.17,VWS V14.01,2013-03-20 01:04:00,
2013-03-19 21:09:00,42.8,37.7,29.75,NW,317,0.0,0.0,82,0.00,,---,0.17,VWS V14.01,2013-03-20 01:09:00,
2013-03-19 21:14:00,42.4,37.6,29.75,NW,317,0.0,0.0,83,0.00,,---,0.17,VWS V14.01,2013-03-20 01:14:00,
2013-03-19 21:19:00,42.1,37.3,29.75,NW,317,0.0,0.0,83,0.00,,---,0.17,VWS V14.01,2013-03-20 01:19:00,
2013-03-19 21:24:00,41.7,37.2,29.75,NW,317,0.0,0.0,84,0.00,,---,0.17,VWS V14.01,2013-03-20 01:24:00,
2013-03-19 21:29:00,41.3,37.1,29.75,NW,317,0.0,0.0,85,0.00,,---,0.17,VWS V14.01,2013-03-20 01:29:00,
2013-03-19 21:30:00,41.2,37.0,29.75,NW,317,0.0,0.0,85,0.00,,---,0.17,VWS V15.00,2013-03-20 01:30:00,
2013-03-19 21:34:00,40.9,37.0,29.76,NW,317,0.0,0.0,86,0.00,,---,0.17,VWS V14.01,2013-03-20 01:34:00,
2013-03-19 21:39:00,40.5,36.7,29.76,NW,317,0.0,0.0,86,0.00,,---,0.17,VWS V14.01,2013-03-20 01:39:00,
2013-03-19 21:44:00,40.2,36.7,29.77,NW,317,0.0,0.0,87,0.00,,---,0.17,VWS V14.01,2013-03-20 01:44:00,
2013-03-19 21:49:00,39.8,36.5,29.77,NW,317,0.0,0.0,88,0.00,,---,0.17,VWS V14.01,2013-03-20 01:49:00,
2013-03-19 21:53:00,39.6,36.6,29.77,NW,317,1.0,1.0,89,0.00,,---,0.17,VWS V14.01,2013-03-20 01:53:00,
2013-03-19 21:58:00,39.4,36.4,29.77,NW,317,0.0,1.0,89,0.00,,---,0.17,VWS V14.01,2013-03-20 01:58:00,
2013-03-19 22:00:00,39.4,36.4,29.77,NW,317,0.0,1.0,89,0.00,,---,0.17,VWS V15.00,2013-03-20 02:00:00,
2013-03-19 22:03:00,39.3,36.6,29.77,NW,314,0.0,3.0,90,0.00,,---,0.17,VWS V14.01,2013-03-20 02:03:00,
2013-03-19 22:08:00,39.3,36.9,29.77,NW,314,0.0,3.0,91,0.00,,---,0.17,VWS V14.01,2013-03-20 02:08:00,
2013-03-19 22:13:00,39.5,37.1,29.77,NW,314,0.0,3.0,91,0.00,,---,0.17,VWS V14.01,2013-03-20 02:13:00,
2013-03-19 22:18:00,39.4,37.0,29.77,NW,314,0.0,3.0,91,0.00,,---,0.17,VWS V14.01,2013-03-20 02:18:00,
2013-03-19 22:23:00,39.3,36.9,29.77,NW,314,0.0,3.0,91,0.00,,---,0.17,VWS V14.01,2013-03-20 02:23:00,
2013-03-19 22:28:00,39.1,36.7,29.77,NW,314,0.0,3.0,91,0.00,,---,0.17,VWS V14.01,2013-03-20 02:28:00,
2013-03-19 22:30:00,39.1,36.7,29.77,NW,314,0.0,3.0,91,0.00,,---,0.17,VWS V15.00,2013-03-20 02:30:00,
2013-03-19 22:33:00,38.9,36.5,29.78,NW,314,0.0,0.0,91,0.00,,---,0.17,VWS V14.01,2013-03-20 02:33:00,
2013-03-19 22:38:00,38.8,36.4,29.78,NNW,331,1.0,2.0,91,0.00,,---,0.17,VWS V14.01,2013-03-20 02:38:00,
2013-03-19 22:43:00,38.9,36.8,29.78,WSW,246,0.0,2.0,92,0.00,,---,0.17,VWS V14.01,2013-03-20 02:43:00,
2013-03-19 22:48:00,38.9,36.8,29.79,WSW,244,0.0,3.0,92,0.00,,---,0.17,VWS V14.01,2013-03-20 02:48:00,
2013-03-19 22:53:00,39.1,36.7,29.80,NW,305,2.0,6.0,91,0.00,,---,0.17,VWS V14.01,2013-03-20 02:53:00,
2013-03-19 22:58:00,39.7,36.4,29.79,WSW,247,1.0,6.0,88,0.00,,---,0.17,VWS V14.01,2013-03-20 02:58:00,
2013-03-19 23:00:00,39.4,36.4,29.77,NW,317,0.0,1.0,89,0.00,,---,0.17,VWS V14.01,2013-03-20 03:00:00,
2013-03-19 23:03:00,40.5,34.8,29.80,NW,318,1.0,6.0,80,0.00,,---,0.17,VWS V14.01,2013-03-20 03:03:00,
2013-03-19 23:08:00,41.2,34.2,29.80,NNE,25,0.0,6.0,76,0.00,,---,0.17,VWS V14.01,2013-03-20 03:08:00,
2013-03-19 23:13:00,41.5,33.8,29.80,NNE,24,4.0,6.0,74,0.00,,---,0.17,VWS V14.01,2013-03-20 03:13:00,
2013-03-19 23:18:00,41.8,32.8,29.81,NE,40,4.0,7.0,70,0.00,,---,0.17,VWS V14.01,2013-03-20 03:18:00,
2013-03-19 23:23:00,41.9,32.1,29.81,North,355,1.0,7.0,68,0.00,,---,0.17,VWS V14.01,2013-03-20 03:23:00,
2013-03-19 23:28:00,41.9,31.0,29.81,WSW,248,2.0,7.0,65,0.00,,---,0.17,VWS V14.01,2013-03-20 03:28:00,
2013-03-19 23:30:00,39.1,36.7,29.77,NW,314,0.0,3.0,91,0.00,,---,0.17,VWS V14.01,2013-03-20 03:30:00,
2013-03-19 23:33:00,41.8,30.5,29.81,North,360,1.0,3.0,64,0.00,,---,0.17,VWS V14.01,2013-03-20 03:33:00,
2013-03-19 23:38:00,41.6,30.0,29.81,NW,324,1.0,5.0,63,0.00,,---,0.17,VWS V14.01,2013-03-20 03:38:00,
2013-03-19 23:43:00,41.4,29.8,29.82,NNW,332,2.0,5.0,63,0.00,,---,0.17,VWS V14.01,2013-03-20 03:43:00,
2013-03-19 23:48:00,41.1,29.5,29.82,NNW,338,0.0,5.0,63,0.00,,---,0.17,VWS V14.01,2013-03-20 03:48:00,
2013-03-19 23:53:00,40.8,30.3,29.83,NNW,336,0.0,5.0,66,0.00,,---,0.17,VWS V14.01,2013-03-20 03:53:00,
2013-03-19 23:58:00,40.4,29.6,29.83,West,265,0.0,5.0,65,0.00,,---,0.17,VWS V14.01,2013-03-20 03:58:00,